Simultaneous Nadir Overpasses (SNOs) Predictions

Prediction of SNOs between GOES-14 and AQUA Satellite Orbit:

Table of predicted SNOs for the next 14.0 days since TLE Epoch: 9/11/2021
Index Date Time (GOES-14) GOES-14 Lat,Lon AQUA Lat,Lon Distance(km) Time Diff (sec)
1 09/12/2021 08:14:37 0.39,-104.18 -0.46,-100.18 455.07 80
2 09/12/2021 20:36:01 -0.38,-104.27 -0.61,-105.38 125.31 80
3 09/14/2021 20:26:31 -0.38,-104.27 0.04,-102.42 210.58 80
4 09/15/2021 08:47:45 0.37,-104.21 1.09,-107.57 382.84 80
5 09/17/2021 08:35:34 0.36,-104.20 0.43,-104.62 47.34 80
6 09/19/2021 08:20:42 0.36,-104.20 -0.16,-101.66 288.68 80
7 09/19/2021 20:42:07 -0.35,-104.24 -0.89,-106.86 296.80 80
8 09/21/2021 20:32:35 -0.35,-104.25 -0.28,-103.90 40.61 80
9 09/23/2021 20:20:23 -0.35,-104.27 0.34,-100.93 378.51 80
10 09/24/2021 08:41:39 0.34,-104.25 0.73,-106.10 210.15 80
